| time (UTC) | temp F | wind direction | speed MPH | gust MPH | rain 1hr in | rain 24hr in | rain mn in | humidity % | barometer mb |
| 20260509233025 | 74 | 290 | 7.0 | 10.0 | 0.00 | 0.00 | 0.00 | 16 | 1010.9 |
| 20260509232525 | 74 | 308 | 3.0 | 12.0 | 0.00 | 0.00 | 0.00 | 17 | 1010.9 |
| 20260509232025 | 73 | 254 | 3.0 | 12.0 | 0.00 | 0.00 | 0.00 | 16 | 1010.9 |
| 20260509231525 | 73 | 300 | 7.0 | 12.0 | 0.00 | 0.00 | 0.00 | 17 | 1011.0 |
| 20260509231024 | 73 | 287 | 4.0 | 10.0 | 0.00 | 0.00 | 0.00 | 15 | 1011.1 |
| 20260509230524 | 73 | 315 | 2.0 | 12.0 | 0.00 | 0.00 | 0.00 | 15 | 1011.1 |
| 20260509230024 | 74 | 332 | 5.0 | 12.0 | 0.00 | 0.00 | 0.00 | 16 | 1011.3 |
| 20260509225524 | 73 | 308 | 4.0 | 10.0 | 0.00 | 0.00 | 0.00 | 15 | 1011.2 |
| 20260509225023 | 73 | 259 | 3.0 | 13.0 | 0.00 | 0.00 | 0.00 | 15 | 1011.2 |
| 20260509224523 | 73 | 322 | 8.0 | 13.0 | 0.00 | 0.00 | 0.00 | 15 | 1011.2 |
| 20260509224023 | 73 | 274 | 6.0 | 13.0 | 0.00 | 0.00 | 0.00 | 14 | 1011.2 |
| 20260509223524 | 73 | 322 | 8.0 | 14.0 | 0.00 | 0.00 | 0.00 | 15 | 1011.2 |
| 20260509223023 | 73 | 301 | 4.0 | 14.0 | 0.00 | 0.00 | 0.00 | 15 | 1011.2 |
| 20260509222522 | 73 | 338 | 3.0 | 12.0 | 0.00 | 0.00 | 0.00 | 14 | 1011.2 |
| 20260509222022 | 73 | 318 | 6.0 | 14.0 | 0.00 | 0.00 | 0.00 | 14 | 1011.4 |
| 20260509221522 | 73 | 327 | 7.0 | 14.0 | 0.00 | 0.00 | 0.00 | 13 | 1011.4 |
| 20260509221021 | 73 | 308 | 9.0 | 15.0 | 0.00 | 0.00 | 0.00 | 14 | 1011.4 |
| 20260509220520 | 73 | 329 | 9.0 | 15.0 | 0.00 | 0.00 | 0.00 | 18 | 1011.4 |
| 20260509220022 | 72 | 350 | 8.0 | 15.0 | 0.00 | 0.00 | 0.00 | 18 | 1011.3 |
| 20260509215519 | 73 | 323 | 8.0 | 15.0 | 0.00 | 0.00 | 0.00 | 18 | 1011.5 |
| 20260509215019 | 72 | 294 | 5.0 | 14.0 | 0.00 | 0.00 | 0.00 | 19 | 1011.7 |
| 20260509214518 | 72 | 305 | 7.0 | 16.0 | 0.00 | 0.00 | 0.00 | 16 | 1011.7 |
| 20260509214018 | 73 | 343 | 5.0 | 16.0 | 0.00 | 0.00 | 0.00 | 17 | 1011.7 |
| 20260509213518 | 72 | 309 | 6.0 | 16.0 | 0.00 | 0.00 | 0.00 | 17 | 1011.7 |
| 20260509213026 | 72 | 302 | 8.0 | 17.0 | 0.00 | 0.00 | 0.00 | 17 | 1011.7 |
| 20260509212519 | 72 | 337 | 11.0 | 17.0 | 0.00 | 0.00 | 0.00 | 18 | 1011.6 |
| 20260509212018 | 72 | 342 | 5.0 | 16.0 | 0.00 | 0.00 | 0.00 | 18 | 1011.5 |
| 20260509211516 | 72 | 308 | 8.0 | 16.0 | 0.00 | 0.00 | 0.00 | 17 | 1011.5 |
| 20260509211016 | 72 | 9 | 6.0 | 16.0 | 0.00 | 0.00 | 0.00 | 18 | 1011.5 |
| 20260509210516 | 72 | 314 | 9.0 | 16.0 | 0.00 | 0.00 | 0.00 | 17 | 1011.5 |
| 20260509210016 | 72 | 316 | 7.0 | 18.0 | 0.00 | 0.00 | 0.00 | 20 | 1011.5 |
| 20260509205514 | 72 | 319 | 11.0 | 18.0 | 0.00 | 0.00 | 0.00 | 19 | 1011.6 |
| 20260509205014 | 72 | 341 | 7.0 | 13.0 | 0.00 | 0.00 | 0.00 | 22 | 1011.5 |
| 20260509204514 | 72 | 307 | 8.0 | 13.0 | 0.00 | 0.00 | 0.00 | 21 | 1011.7 |
| 20260509204013 | 72 | 329 | 7.0 | 16.0 | 0.00 | 0.00 | 0.00 | 24 | 1011.6 |
| 20260509203514 | 72 | 346 | 7.0 | 16.0 | 0.00 | 0.00 | 0.00 | 22 | 1011.6 |
| 20260509203016 | 72 | 313 | 8.0 | 15.0 | 0.00 | 0.00 | 0.00 | 21 | 1011.7 |
| 20260509202513 | 71 | 304 | 10.0 | 15.0 | 0.00 | 0.00 | 0.00 | 24 | 1011.8 |
| 20260509202013 | 71 | 311 | 9.0 | 16.0 | 0.00 | 0.00 | 0.00 | 22 | 1011.6 |
| 20260509201513 | 72 | 330 | 10.0 | 16.0 | 0.00 | 0.00 | 0.00 | 21 | 1011.8 |
| 20260509201014 | 71 | 305 | 10.0 | 14.0 | 0.00 | 0.00 | 0.00 | 19 | 1011.8 |
| 20260509200513 | 71 | 319 | 7.0 | 13.0 | 0.00 | 0.00 | 0.00 | 20 | 1011.8 |
| 20260509200012 | 72 | 297 | 6.0 | 16.0 | 0.00 | 0.00 | 0.00 | 20 | 1011.8 |
| 20260509195512 | 72 | 333 | 9.0 | 16.0 | 0.00 | 0.00 | 0.00 | 24 | 1011.8 |
| 20260509195009 | 71 | 300 | 9.0 | 14.0 | 0.00 | 0.00 | 0.00 | 22 | 1011.9 |
| 20260509194509 | 71 | 317 | 8.0 | 14.0 | 0.00 | 0.00 | 0.00 | 23 | 1012.0 |
| 20260509194011 | 70 | 270 | 6.0 | 14.0 | 0.00 | 0.00 | 0.00 | 26 | 1011.9 |
| 20260509193509 | 70 | 260 | 6.0 | 16.0 | 0.00 | 0.00 | 0.00 | 25 | 1011.9 |
| 20260509193016 | 71 | 302 | 6.0 | 16.0 | 0.00 | 0.00 | 0.00 | 27 | 1011.9 |
| 20260509192507 | 71 | 298 | 9.0 | 17.0 | 0.00 | 0.00 | 0.00 | 26 | 1012.0 |
| 20260509192007 | 71 | 317 | 8.0 | 17.0 | 0.00 | 0.00 | 0.00 | 25 | 1012.0 |
| 20260509191506 | 70 | 308 | 3.0 | 15.0 | 0.00 | 0.00 | 0.00 | 28 | 1012.1 |
| 20260509191006 | 70 | 306 | 11.0 | 15.0 | 0.00 | 0.00 | 0.00 | 25 | 1012.2 |
| 20260509190512 | 70 | 318 | 8.0 | 13.0 | 0.00 | 0.00 | 0.00 | 27 | 1012.2 |
| 20260509190007 | 70 | 317 | 6.0 | 16.0 | 0.00 | 0.00 | 0.00 | 25 | 1012.2 |
| 20260509185504 | 70 | 288 | 10.0 | 16.0 | 0.00 | 0.00 | 0.00 | 27 | 1012.2 |
| 20260509185004 | 70 | 308 | 6.0 | 18.0 | 0.00 | 0.00 | 0.00 | 25 | 1012.3 |
| 20260509184512 | 70 | 299 | 11.0 | 18.0 | 0.00 | 0.00 | 0.00 | 24 | 1012.4 |
| 20260509184002 | 70 | 317 | 6.0 | 16.0 | 0.00 | 0.00 | 0.00 | 28 | 1012.4 |
| 20260509183502 | 70 | 303 | 8.0 | 16.0 | 0.00 | 0.00 | 0.00 | 27 | 1012.4 |
| 20260509183004 | 69 | 286 | 6.0 | 16.0 | 0.00 | 0.00 | 0.00 | 28 | 1012.4 |
| 20260509182504 | 69 | 284 | 9.0 | 16.0 | 0.00 | 0.00 | 0.00 | 27 | 1012.4 |
| 20260509182001 | 69 | 312 | 7.0 | 17.0 | 0.00 | 0.00 | 0.00 | 27 | 1012.4 |
| 20260509181502 | 69 | 315 | 9.0 | 17.0 | 0.00 | 0.00 | 0.00 | 28 | 1012.4 |
| 20260509181001 | 70 | 317 | 10.0 | 15.0 | 0.00 | 0.00 | 0.00 | 25 | 1012.4 |
| 20260509180601 | 69 | 267 | 8.0 | 14.0 | 0.00 | 0.00 | 0.00 | 28 | 1012.3 |
| 20260509180106 | 69 | 287 | 7.0 | 14.0 | 0.00 | 0.00 | 0.00 | 25 | 1012.4 |
| 20260509175559 | 69 | 39 | 3.0 | 10.0 | 0.00 | 0.00 | 0.00 | 26 | 1012.3 |
| 20260509175100 | 69 | 302 | 5.0 | 13.0 | 0.00 | 0.00 | 0.00 | 26 | 1012.4 |
| 20260509174621 | 69 | 315 | 8.0 | 15.0 | 0.00 | 0.00 | 0.00 | 25 | 1012.4 |
| 20260509174059 | 68 | 265 | 8.0 | 15.0 | 0.00 | 0.00 | 0.00 | 27 | 1012.4 |
| 20260509173557 | 69 | 294 | 5.0 | 11.0 | 0.00 | 0.00 | 0.00 | 23 | 1012.5 |
| 20260509173100 | 70 | 335 | 7.0 | 14.0 | 0.00 | 0.00 | 0.00 | 23 | 1012.4 |
| 20260509172559 | 69 | 342 | 2.0 | 14.0 | 0.00 | 0.00 | 0.00 | 23 | 1012.4 |
| 20260509172055 | 68 | 314 | 4.0 | 14.0 | 0.00 | 0.00 | 0.00 | 21 | 1012.3 |
| 20260509171558 | 69 | 312 | 8.0 | 14.0 | 0.00 | 0.00 | 0.00 | 24 | 1012.4 |
| 20260509171055 | 69 | 324 | 6.0 | 14.0 | 0.00 | 0.00 | 0.00 | 24 | 1012.4 |
| 20260509170555 | 69 | 21 | 6.0 | 14.0 | 0.00 | 0.00 | 0.00 | 24 | 1012.3 |
| 20260509170059 | 69 | 327 | 6.0 | 15.0 | 0.00 | 0.00 | 0.00 | 25 | 1012.3 |
| 20260509165552 | 69 | 323 | 6.0 | 15.0 | 0.00 | 0.00 | 0.00 | 24 | 1012.3 |
| 20260509165052 | 69 | 43 | 9.0 | 14.0 | 0.00 | 0.00 | 0.00 | 25 | 1012.4 |
| 20260509164551 | 69 | 27 | 4.0 | 14.0 | 0.00 | 0.00 | 0.00 | 25 | 1012.3 |
| 20260509164050 | 68 | 343 | 7.0 | 13.0 | 0.00 | 0.00 | 0.00 | 26 | 1012.3 |
| 20260509163548 | 68 | 334 | 5.0 | 13.0 | 0.00 | 0.00 | 0.00 | 26 | 1012.3 |
| 20260509163047 | 68 | 35 | 6.0 | 10.0 | 0.00 | 0.00 | 0.00 | 28 | 1012.4 |
| 20260509162547 | 67 | 336 | 5.0 | 13.0 | 0.00 | 0.00 | 0.00 | 28 | 1012.4 |
| 20260509162047 | 67 | 17 | 6.0 | 13.0 | 0.00 | 0.00 | 0.00 | 27 | 1012.3 |
| 20260509161546 | 67 | 324 | 6.0 | 12.0 | 0.00 | 0.00 | 0.00 | 26 | 1012.3 |
| 20260509161044 | 67 | 40 | 7.0 | 12.0 | 0.00 | 0.00 | 0.00 | 27 | 1012.3 |
| 20260509160543 | 67 | 26 | 7.0 | 12.0 | 0.00 | 0.00 | 0.00 | 26 | 1012.3 |
| 20260509160043 | 66 | 345 | 5.0 | 12.0 | 0.00 | 0.00 | 0.00 | 30 | 1012.3 |
| 20260509155541 | 66 | 355 | 7.0 | 12.0 | 0.00 | 0.00 | 0.00 | 28 | 1012.4 |
| 20260509155040 | 66 | 17 | 7.0 | 12.0 | 0.00 | 0.00 | 0.00 | 29 | 1012.4 |
| 20260509154539 | 65 | 19 | 8.0 | 12.0 | 0.00 | 0.00 | 0.00 | 29 | 1012.4 |
| 20260509154039 | 64 | 360 | 7.0 | 13.0 | 0.00 | 0.00 | 0.00 | 30 | 1012.3 |
| 20260509153538 | 65 | 336 | 8.0 | 13.0 | 0.00 | 0.00 | 0.00 | 28 | 1012.3 |
| 20260509153051 | 65 | 19 | 7.0 | 13.0 | 0.00 | 0.00 | 0.00 | 29 | 1012.3 |
| 20260509152541 | 65 | 343 | 5.0 | 13.0 | 0.00 | 0.00 | 0.00 | 29 | 1012.2 |
| 20260509152036 | 65 | 36 | 7.0 | 11.0 | 0.00 | 0.00 | 0.00 | 31 | 1012.3 |
| 20260509151534 | 64 | 319 | 6.0 | 11.0 | 0.00 | 0.00 | 0.00 | 31 | 1012.2 |
| 20260509151033 | 63 | 320 | 6.0 | 11.0 | 0.00 | 0.00 | 0.00 | 33 | 1012.2 |
| 20260509150531 | 63 | 312 | 6.0 | 11.0 | 0.00 | 0.00 | 0.00 | 32 | 1012.2 |
| 20260509150031 | 63 | 259 | 3.0 | 8.0 | 0.00 | 0.00 | 0.00 | 35 | 1012.3 |
| 20260509145529 | 63 | 297 | 2.0 | 6.0 | 0.00 | 0.00 | 0.00 | 33 | 1012.1 |
| 20260509145029 | 62 | 328 | 3.0 | 8.0 | 0.00 | 0.00 | 0.00 | 36 | 1012.1 |
| 20260509144531 | 62 | 307 | 4.0 | 9.0 | 0.00 | 0.00 | 0.00 | 35 | 1012.0 |
| 20260509144026 | 61 | 270 | 4.0 | 9.0 | 0.00 | 0.00 | 0.00 | 36 | 1012.1 |
| 20260509143525 | 61 | 303 | 3.0 | 8.0 | 0.00 | 0.00 | 0.00 | 39 | 1012.1 |
| 20260509143024 | 60 | 250 | 1.0 | 8.0 | 0.00 | 0.00 | 0.00 | 39 | 1012.0 |
| 20260509142528 | 60 | 257 | 3.0 | 7.0 | 0.00 | 0.00 | 0.00 | 40 | 1012.1 |
| 20260509142025 | 59 | 269 | 3.0 | 7.0 | 0.00 | 0.00 | 0.00 | 41 | 1012.1 |
| 20260509141523 | 60 | 267 | 2.0 | 6.0 | 0.00 | 0.00 | 0.00 | 39 | 1012.1 |
| 20260509141022 | 59 | 261 | 1.0 | 5.0 | 0.00 | 0.00 | 0.00 | 38 | 1012.1 |
| 20260509140521 | 58 | 261 | 0.0 | 6.0 | 0.00 | 0.00 | 0.00 | 42 | 1012.1 |
| 20260509140020 | 58 | 259 | 2.0 | 6.0 | 0.00 | 0.00 | 0.00 | 43 | 1012.1 |
| 20260509135521 | 57 | 249 | 0.0 | 3.0 | 0.00 | 0.00 | 0.00 | 40 | 1012.0 |
| 20260509135018 | 57 | 249 | 1.0 | 4.0 | 0.00 | 0.00 | 0.00 | 41 | 1012.0 |
| 20260509134517 | 56 | 248 | 0.0 | 4.0 | 0.00 | 0.00 | 0.00 | 42 | 1011.9 |
| 20260509134116 | 56 | 247 | 2.0 | 4.0 | 0.00 | 0.00 | 0.00 | 46 | 1011.8 |
| 20260509133515 | 56 | 250 | 1.0 | 4.0 | 0.00 | 0.00 | 0.00 | 44 | 1011.8 |
| 20260509133014 | 56 | 252 | 2.0 | 3.0 | 0.00 | 0.00 | 0.00 | 45 | 1011.8 |
| 20260509132515 | 57 | 234 | 0.0 | 3.0 | 0.00 | 0.00 | 0.00 | 43 | 1011.6 |
| 20260509132012 | 57 | 234 | 0.0 | 1.0 | 0.00 | 0.00 | 0.00 | 41 | 1011.6 |
| 20260509131514 | 57 | 234 | 0.0 | 3.0 | 0.00 | 0.00 | 0.00 | 42 | 1011.6 |
| 20260509131013 | 56 | 235 | 0.0 | 3.0 | 0.00 | 0.00 | 0.00 | 42 | 1011.5 |
| 20260509130511 | 55 | 360 | 0.0 | 1.0 | 0.00 | 0.00 | 0.00 | 48 | 1011.4 |
| 20260509130026 | 54 | 234 | 0.0 | 1.0 | 0.00 | 0.00 | 0.00 | 46 | 1011.4 |
| 20260509125509 | 54 | 236 | 0.0 | 0.0 | 0.00 | 0.00 | 0.00 | 44 | 1011.3 |
| 20260509125009 | 53 | 236 | 0.0 | 0.0 | 0.00 | 0.00 | 0.00 | 46 | 1011.3 |
| 20260509124508 | 53 | 236 | 0.0 | 0.0 | 0.00 | 0.00 | 0.00 | 45 | 1011.4 |
| 20260509124009 | 54 | 236 | 0.0 | 0.0 | 0.00 | 0.00 | 0.00 | 46 | 1011.3 |
| 20260509123507 | 55 | 236 | 0.0 | 2.0 | 0.00 | 0.00 | 0.00 | 43 | 1011.2 |
| 20260509123006 | 56 | 236 | 0.0 | 2.0 | 0.00 | 0.00 | 0.00 | 40 | 1011.1 |
| 20260509122505 | 56 | 236 | 0.0 | 3.0 | 0.00 | 0.00 | 0.00 | 46 | 1011.1 |
| 20260509122005 | 56 | 242 | 0.0 | 2.0 | 0.00 | 0.00 | 0.00 | 40 | 1011.0 |
| 20260509121510 | 55 | 242 | 0.0 | 1.0 | 0.00 | 0.00 | 0.00 | 43 | 1011.1 |
| 20260509121004 | 54 | 246 | 0.0 | 1.0 | 0.00 | 0.00 | 0.00 | 42 | 1011.1 |
| 20260509120504 | 54 | 249 | 0.0 | 2.0 | 0.00 | 0.00 | 0.00 | 41 | 1011.0 |
| 20260509120004 | 54 | 249 | 0.0 | 2.0 | 0.00 | 0.00 | 0.00 | 42 | 1010.9 |
| 20260509115503 | 54 | 249 | 0.0 | 1.0 | 0.00 | 0.00 | 0.00 | 43 | 1010.9 |
| 20260509115002 | 54 | 249 | 0.0 | 2.0 | 0.00 | 0.00 | 0.00 | 42 | 1010.8 |
| 20260509114502 | 53 | 249 | 0.0 | 2.0 | 0.00 | 0.00 | 0.00 | 44 | 1010.8 |
| 20260509114001 | 53 | 249 | 0.0 | 0.0 | 0.00 | 0.00 | 0.00 | 50 | 1010.7 |
| 20260509113603 | 53 | 249 | 0.0 | 0.0 | 0.00 | 0.00 | 0.00 | 53 | 1010.6 |
| 20260509113101 | 54 | 249 | 0.0 | 0.0 | 0.00 | 0.00 | 0.00 | 48 | 1010.6 |
| 20260509112557 | 54 | 249 | 0.0 | 2.0 | 0.00 | 0.00 | 0.00 | 49 | 1010.5 |
| 20260509112057 | 55 | 249 | 0.0 | 3.0 | 0.00 | 0.00 | 0.00 | 44 | 1010.6 |
| 20260509111557 | 55 | 250 | 1.0 | 3.0 | 0.00 | 0.00 | 0.00 | 48 | 1010.6 |
| 20260509111059 | 55 | 252 | 1.0 | 3.0 | 0.00 | 0.00 | 0.00 | 45 | 1010.5 |
| 20260509110600 | 56 | 252 | 0.0 | 3.0 | 0.00 | 0.00 | 0.00 | 48 | 1010.5 |
| 20260509110104 | 55 | 257 | 0.0 | 3.0 | 0.00 | 0.00 | 0.00 | 44 | 1010.5 |
| 20260509105555 | 55 | 259 | 0.0 | 3.0 | 0.00 | 0.00 | 0.00 | 55 | 1010.5 |
| 20260509105055 | 55 | 259 | 0.0 | 2.0 | 0.00 | 0.00 | 0.00 | 52 | 1010.5 |
| 20260509104554 | 55 | 259 | 0.0 | 2.0 | 0.00 | 0.00 | 0.00 | 43 | 1010.4 |
| 20260509104053 | 55 | 259 | 0.0 | 2.0 | 0.00 | 0.00 | 0.00 | 43 | 1010.4 |
| 20260509103553 | 55 | 259 | 1.0 | 4.0 | 0.00 | 0.00 | 0.00 | 47 | 1010.4 |
| 20260509103101 | 56 | 269 | 2.0 | 7.0 | 0.00 | 0.00 | 0.00 | 51 | 1010.4 |
| 20260509102553 | 56 | 267 | 3.0 | 7.0 | 0.00 | 0.00 | 0.00 | 51 | 1010.4 |
| 20260509102054 | 57 | 266 | 3.0 | 7.0 | 0.00 | 0.00 | 0.00 | 50 | 1010.4 |
| 20260509101603 | 56 | 276 | 2.0 | 7.0 | 0.00 | 0.00 | 0.00 | 43 | 1010.3 |
| 20260509101052 | 56 | 269 | 4.0 | 7.0 | 0.00 | 0.00 | 0.00 | 47 | 1010.2 |
| 20260509100551 | 56 | 265 | 1.0 | 6.0 | 0.00 | 0.00 | 0.00 | 46 | 1010.1 |
| 20260509100050 | 55 | 355 | 3.0 | 8.0 | 0.00 | 0.00 | 0.00 | 54 | 1010.1 |
| 20260509095548 | 55 | 256 | 6.0 | 8.0 | 0.00 | 0.00 | 0.00 | 54 | 1010.1 |
| 20260509095047 | 55 | 290 | 5.0 | 10.0 | 0.00 | 0.00 | 0.00 | 56 | 1009.9 |
| 20260509094557 | 55 | 281 | 4.0 | 10.0 | 0.00 | 0.00 | 0.00 | 55 | 1010.0 |
| 20260509094050 | 55 | 254 | 5.0 | 8.0 | 0.00 | 0.00 | 0.00 | 54 | 1009.9 |
| 20260509093545 | 56 | 270 | 2.0 | 7.0 | 0.00 | 0.00 | 0.00 | 55 | 1009.8 |
| 20260509093048 | 56 | 273 | 3.0 | 7.0 | 0.00 | 0.00 | 0.00 | 56 | 1009.8 |
| 20260509092543 | 57 | 252 | 2.0 | 7.0 | 0.00 | 0.00 | 0.00 | 53 | 1009.8 |
| 20260509092042 | 57 | 251 | 2.0 | 8.0 | 0.00 | 0.00 | 0.00 | 55 | 1009.8 |
| 20260509091544 | 57 | 270 | 2.0 | 8.0 | 0.00 | 0.00 | 0.00 | 56 | 1009.8 |
| 20260509091042 | 57 | 269 | 3.0 | 8.0 | 0.00 | 0.00 | 0.00 | 54 | 1009.7 |
| 20260509090541 | 57 | 259 | 2.0 | 6.0 | 0.00 | 0.00 | 0.00 | 52 | 1009.7 |
| 20260509090049 | 58 | 267 | 3.0 | 8.0 | 0.00 | 0.00 | 0.00 | 52 | 1009.6 |
| 20260509085540 | 58 | 269 | 4.0 | 8.0 | 0.00 | 0.00 | 0.00 | 49 | 1009.6 |
| 20260509085040 | 58 | 263 | 4.0 | 8.0 | 0.00 | 0.00 | 0.00 | 51 | 1009.6 |
| 20260509084545 | 57 | 265 | 4.0 | 8.0 | 0.00 | 0.00 | 0.00 | 54 | 1009.5 |
| 20260509084040 | 57 | 274 | 3.0 | 8.0 | 0.00 | 0.00 | 0.00 | 57 | 1009.6 |
| 20260509083538 | 57 | 289 | 4.0 | 8.0 | 0.00 | 0.00 | 0.00 | 58 | 1009.5 |
| 20260509083051 | 57 | 244 | 2.0 | 10.0 | 0.00 | 0.00 | 0.00 | 60 | 1009.4 |
| 20260509082536 | 57 | 277 | 6.0 | 10.0 | 0.00 | 0.00 | 0.00 | 57 | 1009.4 |
| 20260509082035 | 58 | 275 | 4.0 | 9.0 | 0.00 | 0.00 | 0.00 | 55 | 1009.4 |
| 20260509081533 | 59 | 268 | 4.0 | 8.0 | 0.00 | 0.00 | 0.00 | 53 | 1009.3 |
| 20260509081033 | 61 | 273 | 2.0 | 6.0 | 0.00 | 0.00 | 0.00 | 43 | 1009.3 |
| 20260509080532 | 61 | 311 | 2.0 | 6.0 | 0.00 | 0.00 | 0.00 | 41 | 1009.3 |
| 20260509080031 | 62 | 312 | 1.0 | 6.0 | 0.00 | 0.00 | 0.00 | 40 | 1009.2 |
| 20260509075533 | 62 | 259 | 3.0 | 9.0 | 0.00 | 0.00 | 0.00 | 40 | 1009.2 |
| 20260509075029 | 62 | 269 | 5.0 | 9.0 | 0.00 | 0.00 | 0.00 | 40 | 1009.1 |
| 20260509074528 | 62 | 269 | 5.0 | 9.0 | 0.00 | 0.00 | 0.00 | 41 | 1008.9 |
| 20260509074028 | 62 | 253 | 4.0 | 10.0 | 0.00 | 0.00 | 0.00 | 41 | 1009.0 |
| 20260509073530 | 62 | 258 | 7.0 | 10.0 | 0.00 | 0.00 | 0.00 | 41 | 1008.9 |
| 20260509073031 | 61 | 267 | 6.0 | 10.0 | 0.00 | 0.00 | 0.00 | 43 | 1008.9 |
| 20260509072527 | 62 | 242 | 3.0 | 10.0 | 0.00 | 0.00 | 0.00 | 44 | 1008.7 |
| 20260509072027 | 62 | 274 | 4.0 | 10.0 | 0.00 | 0.00 | 0.00 | 43 | 1008.7 |
| 20260509071534 | 61 | 261 | 5.0 | 9.0 | 0.00 | 0.00 | 0.00 | 45 | 1008.7 |
| 20260509071026 | 61 | 270 | 5.0 | 9.0 | 0.00 | 0.00 | 0.00 | 47 | 1008.8 |
| 20260509070528 | 60 | 259 | 5.0 | 8.0 | 0.00 | 0.00 | 0.00 | 50 | 1008.7 |
| 20260509070024 | 61 | 268 | 3.0 | 8.0 | 0.00 | 0.00 | 0.00 | 51 | 1008.7 |
| 20260509065524 | 60 | 257 | 3.0 | 7.0 | 0.00 | 0.00 | 0.00 | 50 | 1008.6 |
| 20260509065022 | 61 | 274 | 3.0 | 7.0 | 0.00 | 0.00 | 0.00 | 48 | 1008.6 |
| 20260509064521 | 61 | 235 | 2.0 | 6.0 | 0.00 | 0.00 | 0.00 | 45 | 1008.5 |
| 20260509064020 | 61 | 255 | 2.0 | 4.0 | 0.00 | 0.00 | 0.00 | 44 | 1008.4 |
| 20260509063519 | 61 | 251 | 2.0 | 4.0 | 0.00 | 0.00 | 0.00 | 43 | 1008.5 |
| 20260509063023 | 61 | 257 | 1.0 | 3.0 | 0.00 | 0.00 | 0.00 | 43 | 1008.4 |
| 20260509062518 | 61 | 213 | 1.0 | 2.0 | 0.00 | 0.00 | 0.00 | 42 | 1008.3 |
| 20260509062017 | 61 | 213 | 0.0 | 2.0 | 0.00 | 0.00 | 0.00 | 41 | 1008.2 |
| 20260509061521 | 62 | 213 | 0.0 | 2.0 | 0.00 | 0.00 | 0.00 | 40 | 1008.0 |
| 20260509061019 | 62 | 213 | 0.0 | 0.0 | 0.00 | 0.00 | 0.00 | 40 | 1008.0 |
| 20260509060514 | 62 | 213 | 0.0 | 1.0 | 0.00 | 0.00 | 0.00 | 39 | 1008.0 |
| 20260509060012 | 63 | 213 | 0.0 | 1.0 | 0.00 | 0.00 | 0.00 | 38 | 1008.0 |
| 20260509055514 | 64 | 213 | 0.0 | 1.0 | 0.00 | 0.00 | 0.00 | 37 | 1008.0 |
| 20260509055011 | 64 | 213 | 0.0 | 2.0 | 0.00 | 0.00 | 0.00 | 35 | 1008.1 |
| 20260509054513 | 64 | 213 | 0.0 | 2.0 | 0.00 | 0.00 | 0.00 | 35 | 1008.2 |
| 20260509054011 | 64 | 209 | 0.0 | 2.0 | 0.00 | 0.00 | 0.00 | 34 | 1008.1 |
| 20260509053511 | 64 | 213 | 0.0 | 5.0 | 0.00 | 0.00 | 0.00 | 33 | 1008.1 |
| 20260509053138 | 64 | 229 | 0.0 | 5.0 | 0.00 | 0.00 | 0.00 | 32 | 1008.1 |
| 20260509052511 | 63 | 245 | 1.0 | 5.0 | 0.00 | 0.00 | 0.00 | 33 | 1008.1 |
| 20260509052010 | 63 | 262 | 0.0 | 6.0 | 0.00 | 0.00 | 0.00 | 34 | 1008.0 |
| 20260509051511 | 64 | 262 | 0.0 | 9.0 | 0.00 | 0.00 | 0.00 | 35 | 1008.0 |
| 20260509051011 | 63 | 285 | 0.0 | 9.0 | 0.00 | 0.00 | 0.00 | 34 | 1008.0 |
| 20260509050511 | 63 | 323 | 3.0 | 9.0 | 0.00 | 0.00 | 0.00 | 36 | 1008.1 |
| 20260509050017 | 64 | 296 | 2.0 | 9.0 | 0.00 | 0.00 | 0.00 | 35 | 1007.8 |
| 20260509045519 | 64 | 207 | 0.0 | 2.0 | 0.00 | 0.00 | 0.00 | 36 | 1007.7 |
| 20260509045010 | 63 | 143 | 0.0 | 0.0 | 0.00 | 0.00 | 0.00 | 37 | 1007.6 |
| 20260509044509 | 63 | 143 | 0.0 | 2.0 | 0.00 | 0.00 | 0.00 | 37 | 1007.7 |
| 20260509044011 | 63 | 144 | 0.0 | 2.0 | 0.00 | 0.00 | 0.00 | 36 | 1007.7 |
| 20260509043509 | 63 | 144 | 0.0 | 0.0 | 0.00 | 0.00 | 0.00 | 35 | 1007.6 |
| 20260509043009 | 64 | 144 | 0.0 | 0.0 | 0.00 | 0.00 | 0.00 | 35 | 1007.4 |
| 20260509042508 | 65 | 144 | 0.0 | 1.0 | 0.00 | 0.00 | 0.00 | 33 | 1007.3 |
| 20260509042013 | 65 | 144 | 0.0 | 2.0 | 0.00 | 0.00 | 0.00 | 32 | 1007.1 |
| 20260509041508 | 65 | 139 | 0.0 | 2.0 | 0.00 | 0.00 | 0.00 | 31 | 1006.9 |
| 20260509041008 | 67 | 187 | 0.0 | 2.0 | 0.00 | 0.00 | 0.00 | 28 | 1007.0 |
| 20260509040507 | 68 | 189 | 0.0 | 1.0 | 0.00 | 0.00 | 0.00 | 26 | 1007.0 |
| 20260509040018 | 68 | 189 | 0.0 | 2.0 | 0.00 | 0.00 | 0.00 | 26 | 1006.9 |
| 20260509035507 | 68 | 189 | 0.0 | 2.0 | 0.00 | 0.00 | 0.00 | 26 | 1006.9 |
| 20260509035008 | 68 | 186 | 1.0 | 2.0 | 0.00 | 0.00 | 0.00 | 26 | 1006.8 |
| 20260509034507 | 68 | 186 | 0.0 | 2.0 | 0.00 | 0.00 | 0.00 | 26 | 1006.8 |
| 20260509034008 | 68 | 182 | 0.0 | 2.0 | 0.00 | 0.00 | 0.00 | 27 | 1006.7 |
| 20260509033506 | 68 | 182 | 0.0 | 2.0 | 0.00 | 0.00 | 0.00 | 27 | 1006.6 |
| 20260509033006 | 68 | 182 | 0.0 | 2.0 | 0.00 | 0.00 | 0.00 | 27 | 1006.6 |
| 20260509032508 | 68 | 209 | 0.0 | 2.0 | 0.00 | 0.00 | 0.00 | 27 | 1006.6 |
| 20260509032005 | 69 | 221 | 0.0 | 2.0 | 0.00 | 0.00 | 0.00 | 27 | 1006.5 |
| 20260509031507 | 69 | 219 | 0.0 | 2.0 | 0.00 | 0.00 | 0.00 | 26 | 1006.4 |
| 20260509031005 | 69 | 240 | 0.0 | 0.0 | 0.00 | 0.00 | 0.00 | 26 | 1006.4 |
| 20260509030505 | 69 | 240 | 0.0 | 2.0 | 0.00 | 0.00 | 0.00 | 26 | 1006.4 |
| 20260509030006 | 69 | 240 | 0.0 | 3.0 | 0.00 | 0.00 | 0.00 | 27 | 1006.4 |
| 20260509025506 | 69 | 244 | 1.0 | 3.0 | 0.00 | 0.00 | 0.00 | 27 | 1006.4 |
| 20260509025004 | 69 | 249 | 0.0 | 2.0 | 0.00 | 0.00 | 0.00 | 29 | 1006.4 |
| 20260509024507 | 69 | 355 | 0.0 | 0.0 | 0.00 | 0.00 | 0.00 | 27 | 1006.3 |
| 20260509024004 | 68 | 351 | 0.0 | 0.0 | 0.00 | 0.00 | 0.00 | 28 | 1006.2 |
| 20260509023504 | 69 | 351 | 0.0 | 0.0 | 0.00 | 0.00 | 0.00 | 28 | 1006.2 |
| 20260509023004 | 70 | 351 | 0.0 | 0.0 | 0.00 | 0.00 | 0.00 | 27 | 1006.1 |
| 20260509022504 | 70 | 351 | 0.0 | 0.0 | 0.00 | 0.00 | 0.00 | 25 | 1006.1 |
| 20260509022003 | 70 | 351 | 0.0 | 2.0 | 0.00 | 0.00 | 0.00 | 25 | 1006.1 |
| 20260509021505 | 70 | 351 | 0.0 | 2.0 | 0.00 | 0.00 | 0.00 | 25 | 1006.1 |
| 20260509021004 | 71 | 355 | 0.0 | 0.0 | 0.00 | 0.00 | 0.00 | 24 | 1006.0 |
| 20260509020502 | 71 | 355 | 0.0 | 0.0 | 0.00 | 0.00 | 0.00 | 23 | 1006.0 |
| 20260509020003 | 71 | 355 | 0.0 | 0.0 | 0.00 | 0.00 | 0.00 | 23 | 1006.1 |
| 20260509015502 | 71 | 355 | 0.0 | 3.0 | 0.00 | 0.00 | 0.00 | 23 | 1006.1 |
| 20260509015003 | 73 | 355 | 1.0 | 3.0 | 0.00 | 0.00 | 0.00 | 22 | 1006.1 |
| 20260509014501 | 73 | 355 | 0.0 | 5.0 | 0.00 | 0.00 | 0.00 | 21 | 1006.1 |
| 20260509014001 | 74 | 355 | 2.0 | 5.0 | 0.00 | 0.00 | 0.00 | 21 | 1006.2 |
| 20260509013501 | 74 | 49 | 0.0 | 4.0 | 0.00 | 0.00 | 0.00 | 21 | 1006.1 |
| 20260509013103 | 75 | 49 | 2.0 | 4.0 | 0.00 | 0.00 | 0.00 | 20 | 1006.2 |
| 20260509012559 | 75 | 17 | 2.0 | 8.0 | 0.00 | 0.00 | 0.00 | 20 | 1006.2 |
| 20260509012058 | 75 | 11 | 3.0 | 8.0 | 0.00 | 0.00 | 0.00 | 20 | 1006.2 |
| 20260509011600 | 75 | 9 | 3.0 | 6.0 | 0.00 | 0.00 | 0.00 | 19 | 1006.3 |
| 20260509011057 | 76 | 15 | 2.0 | 8.0 | 0.00 | 0.00 | 0.00 | 20 | 1006.3 |
| 20260509010556 | 76 | 304 | 4.0 | 8.0 | 0.00 | 0.00 | 0.00 | 19 | 1006.5 |
| 20260509010056 | 76 | 325 | 3.0 | 8.0 | 0.00 | 0.00 | 0.00 | 19 | 1006.7 |
| 20260509005555 | 76 | 32 | 2.0 | 9.0 | 0.00 | 0.00 | 0.00 | 20 | 1006.6 |
| 20260509005055 | 76 | 351 | 4.0 | 9.0 | 0.00 | 0.00 | 0.00 | 20 | 1006.7 |
| 20260509004600 | 76 | 315 | 6.0 | 9.0 | 0.00 | 0.00 | 0.00 | 19 | 1006.8 |
| 20260509004054 | 76 | 331 | 3.0 | 11.0 | 0.00 | 0.00 | 0.00 | 19 | 1006.8 |
| 20260509003554 | 76 | 315 | 3.0 | 11.0 | 0.00 | 0.00 | 0.00 | 19 | 1007.0 |
| 20260509003057 | 76 | 317 | 4.0 | 10.0 | 0.00 | 0.00 | 0.00 | 19 | 1007.0 |
| 20260509002552 | 76 | 311 | 3.0 | 8.0 | 0.00 | 0.00 | 0.00 | 20 | 1007.0 |
| 20260509002052 | 77 | 313 | 1.0 | 11.0 | 0.00 | 0.00 | 0.00 | 19 | 1007.1 |
| 20260509001552 | 76 | 320 | 6.0 | 11.0 | 0.00 | 0.00 | 0.00 | 19 | 1007.1 |
| 20260509001050 | 76 | 19 | 4.0 | 11.0 | 0.00 | 0.00 | 0.00 | 19 | 1007.1 |
| 20260509000552 | 76 | 310 | 1.0 | 12.0 | 0.00 | 0.00 | 0.00 | 19 | 1007.2 |
| 20260509000051 | 77 | 284 | 7.0 | 12.0 | 0.00 | 0.00 | 0.00 | 19 | 1007.3 |
| 20260508235550 | 77 | 11 | 5.0 | 12.0 | 0.00 | 0.00 | 0.00 | 19 | 1007.3 |
| 20260508235049 | 77 | 299 | 7.0 | 13.0 | 0.00 | 0.00 | 0.00 | 19 | 1007.5 |
| 20260508234550 | 77 | 311 | 8.0 | 14.0 | 0.00 | 0.00 | 0.00 | 18 | 1007.5 |
| 20260508234051 | 77 | 319 | 7.0 | 14.0 | 0.00 | 0.00 | 0.00 | 19 | 1007.4 |
| 20260508233549 | 77 | 273 | 5.0 | 11.0 | 0.00 | 0.00 | 0.00 | 19 | 1007.5 |